Location: Estrées
(49.7863°N, 2.3305°E)
Time: 13:30:41
(UTC+00:00)

Daily predictions for brighter satellites

Satellite Brightness Start Highest point End
(mag) Time Altitude Azimuth Time Altitude Azimuth Time Altitude Azimuth
ATLAS 2AS CENTAUR R/B 3.0 20:29:43 10° NW 20:36:35 62° NE 20:43:10 10° ESE
Meteor 1-22 Rocket 4.4 20:32:01 10° N 20:37:39 68° ENE 20:43:29 10° SSE
BREEZE-M DEB (TANK) 3.6 20:36:34 10° SW 20:40:04 49° SE 20:51:08 10° ENE
COSMOS 2406 3.8 20:35:58 10° SW 20:41:41 65° WNW 20:47:25 10° NNE
Meteor 2-10 Rocket 3.9 20:36:09 10° N 20:41:41 56° ENE 20:46:57 10° SSE
Cosmos 1674 3.9 20:39:56 10° SSW 20:43:12 39° WNW 20:46:29 10° N
ARGOS Delta rocket 3.8 20:39:42 10° S 20:44:08 75° W 20:48:33 10° NNW
Cosmos 1733 Rocket 3.8 20:44:24 10° N 20:48:32 39° ENE 20:52:41 10° SE
SL-4 R/B 2.3 20:44:54 10° W 20:48:40 67° N 20:52:44 10° E
Cosmos 2278 4.2 20:43:42 10° NW 20:49:21 61° WSW 20:54:57 10° SSE
Cosmos 1300 3.0 20:50:18 10° N 20:53:46 46° ENE 20:57:12 10° SSE
S3M 4.1 20:47:37 10° N 20:54:03 86° E 21:00:22 10° S
Ariane Rocket 3.1 20:49:37 10° SSE 20:54:40 70° ENE 20:59:45 10° N
USA 281 4.5 20:49:23 10° ESE 20:55:00 31° NE 21:00:38 10° NNW
Timation 1 Rocket 4.4 20:50:38 10° S 20:56:26 58° ESE 21:02:17 10° NE
SL-27 R/B 3.2 20:54:45 10° SSE 20:57:00 23° ESE 20:59:18 10° NE
Okean-O 4.0 20:53:44 10° SSW 20:57:46 35° W 21:01:51 10° NNW
Cosmos 1441 Rocket 4.2 20:55:13 10° NNW 20:58:39 42° W 21:02:05 10° SSW
Cosmos 1400 Rocket 2.7 20:56:56 10° S 21:00:48 73° E 21:04:38 10° NNE
Cosmos 2219 Rocket 3.0 20:55:46 10° NNW 21:01:11 43° NE 21:06:35 10° ESE
Meteor 1-13 Rocket 4.4 20:55:41 10° SSW 21:01:29 82° WNW 21:07:11 10° N
COSMOS 2428 4.3 20:57:50 10° NNW 21:02:36 27° NE 21:07:21 10° E
BREEZE-M DEB (TANK) 1.9 21:01:55 10° W 21:03:56 50° SSW 21:06:39 10° ESE
Cosmos 1908 4.5 21:00:47 10° NNW 21:04:07 36° W 21:07:27 10° SSW
Cosmos 1356 Rocket 3.9 21:00:16 10° SSE 21:04:16 45° E 21:08:17 10° NNE
Cosmos 2266 Rocket 4.1 20:59:36 10° S 21:05:57 86° E 21:12:25 10° N
USA 245 3.7 21:02:52 10° S 21:06:26 66° W 21:10:59 10° NNW
ATLAS CENTAUR R/B 1.4 21:03:30 10° SSW 21:06:46 39° ESE 21:10:09 10° NE
Cosmos 1850 Rocket 4.1 21:03:45 10° S 21:08:52 58° ESE 21:13:58 10° NNE
Cosmos 1655 Rocket 4.1 21:05:14 10° S 21:11:34 69° E 21:17:55 10° NNE
Cosmos 1869 Rocket 4.4 21:08:22 10° NNW 21:12:41 50° W 21:16:59 10° SSW
Meteor 1-4 Rocket 3.5 21:13:07 13° SE 21:14:57 22° E 21:17:21 10° NE
Cosmos 2228 Rocket 3.2 21:10:46 10° S 21:15:16 64° E 21:19:49 10° NNE
MOS 1 Rocket 3.7 21:10:53 10° S 21:16:17 82° WSW 21:21:35 10° NNW
Okean O Rocket 4.3 21:14:56 10° WSW 21:17:12 14° W 21:19:28 10° WNW
Cosmos 1953 3.6 21:14:41 10° NNE 21:17:59 26° ENE 21:20:51 12° SE
Cosmos 1315 Rocket 4.1 21:17:28 13° SE 21:20:13 25° E 21:23:32 10° NE
Cosmos 968 Rocket 3.7 21:17:21 10° S 21:22:20 53° ESE 21:27:23 10° NNE
SPOT 3 Rocket 3.7 21:18:29 10° S 21:23:37 75° WSW 21:28:49 10° NNW
SeaSat 1 3.2 21:19:17 10° S 21:23:59 47° WSW 21:28:45 10° NW
Cosmos 2360 Rocket 2.3 21:20:43 10° NNW 21:26:25 79° WSW 21:31:30 13° SSE
Cosmos 1741 Rocket 4.0 21:24:04 10° SSW 21:29:20 80° ESE 21:34:40 10° NNE
Cosmos 1242 Rocket 4.1 21:29:31 11° ESE 21:30:13 12° E 21:31:26 10° ENE
BlueWalker 3 3.5 21:31:49 15° SE 21:31:49 15° SE 21:33:59 10° E
Cosmos 1814 Rocket 4.1 21:27:26 10° NNW 21:32:46 80° ENE 21:37:16 15° SSE
MetOp-A 4.1 21:28:25 13° SSE 21:33:04 74° ENE 21:38:19 10° NNW
Landsat 4 4.2 21:30:20 10° S 21:33:36 46° W 21:36:57 10° NNW
COSMOS 2455 4.5 21:35:30 12° SE 21:37:59 16° ESE 21:41:22 10° ENE
SL-16 R/B 3.4 21:33:01 10° NW 21:38:06 34° WSW 21:43:08 10° S
Landsat 5 3.4 21:36:19 10° NNE 21:40:19 67° ESE 21:44:11 12° S
USA 234 3.2 21:34:20 10° ENE 21:40:55 80° SE 21:47:28 10° SW
Cosmos 2333 Rocket 2.5 21:36:37 10° NNW 21:42:20 66° WSW 21:47:09 15° SSE
SL-14 R/B 3.7 21:40:19 10° SSW 21:44:02 58° WNW 21:47:49 10° N
Cosmos 1703 Rocket 4.5 21:43:33 17° SSE 21:46:26 34° E 21:50:28 10° NNE
Cosmos 1862 Rocket 3.6 21:42:54 10° S 21:47:17 84° W 21:51:45 10° N
Cosmos 1346 Rocket 3.5 21:44:06 10° NNW 21:47:50 47° W 21:51:09 12° S
Okean 3 3.4 21:46:08 12° S 21:49:58 86° E 21:54:10 10° N
DNEPR-1 R/B 4.4 21:43:08 10° NW 21:50:01 85° SW 21:54:25 17° SE
Cosmos 1455 2.3 21:49:30 10° N 21:52:57 53° ENE 21:55:03 21° SSE
Cosmos 1408 4.4 21:55:12 11° E 21:55:51 12° E 21:57:05 10° ENE
Cosmos 1833 4.1 21:51:24 10° SSW 21:57:01 82° ESE 22:02:41 10° NNE
EXPRESS MD2 1.8 21:55:19 10° W 21:57:46 87° N 21:59:45 11° E
CZ-4C R/B 3.5 21:58:28 14° ESE 21:59:27 14° ESE 22:02:09 10° ENE
RESURS DK-1 4.3 21:56:29 10° WNW 21:59:30 20° WSW 22:02:30 10° SSW
Cosmos 2237 Rocket 3.7 21:56:34 10° NNW 22:01:29 29° NE 22:06:22 10° ESE
H-2A R/B 3.8 21:58:41 15° ESE 22:01:39 31° ENE 22:05:24 10° N
Cosmos 1932 4.4 21:57:17 10° SSW 22:03:35 67° ESE 22:09:48 10° NE
SJ 16-02 1.3 22:00:36 10° SSW 22:04:55 87° WNW 22:09:17 10° NNE
Cosmos 2322 3.8 21:59:37 10° NNW 22:05:20 71° ENE 22:09:35 18° SE
Terra 3.7 22:01:54 10° SSW 22:05:42 24° W 22:09:31 10° NW
CZ-2C R/B 4.0 22:02:33 10° NNE 22:06:49 46° E 22:09:29 21° SSE
Aureole 3 4.1 22:07:01 11° SSW 22:10:52 61° WNW 22:15:53 10° N
Cosmos 2322 Rocket 3.8 22:15:40 10° NW 22:20:16 26° WSW 22:24:47 10° SSW
ARIANE 5 R/B 2.5 22:23:17 24° SSE 22:25:53 88° ENE 22:30:15 10° NNW
NOSS 5 (C) 4.1 22:23:19 10° NW 22:26:32 85° NE 22:27:59 29° SE
ATLAS 2AS CENTAUR R/B 3.5 22:21:02 10° NW 22:27:12 38° WSW 22:31:35 17° S
SL-4 R/B 2.0 22:23:40 10° WNW 22:27:38 85° NNE 22:31:52 10° ESE
Cosmos 2297 Rocket 3.5 22:27:17 18° SE 22:29:33 23° ESE 22:33:55 10° NE
Okean 1-7 3.6 22:30:05 14° SSW 22:33:39 56° WNW 22:37:55 10° N
USA 281 3.3 22:34:22 21° SSE 22:39:02 75° WSW 22:45:39 10° NNW
Cosmos 1745 Rocket 4.1 22:34:59 20° S 22:39:30 74° E 22:45:53 10° NNE
Cosmos 1908 Rocket 4.2 22:36:42 10° NNW 22:40:54 47° W 22:43:32 20° SSW
GP-B 3.2 22:36:42 10° N 22:41:07 73° W 22:43:51 23° SSW
Cosmos 1782 Rocket 3.5 22:39:31 10° NNW 22:43:51 83° W 22:46:09 27° S
Spot 4 4.0 22:41:21 24° SSE 22:44:11 69° ENE 22:48:59 10° N
ATLAS CENTAUR R/B 3.2 22:41:26 10° W 22:44:31 27° NW 22:47:42 10° NNE
Cosmos 2219 Rocket 3.1 22:39:52 10° NW 22:45:06 39° WSW 22:48:35 19° SSW
Nadezhda 1 Rocket 4.0 22:40:00 10° NNW 22:46:20 79° W 22:50:31 22° S
Okean 2 4.5 22:43:49 13° SW 22:47:04 39° WNW 22:50:53 10° N
COSMOS 2428 2.7 22:41:43 10° NNW 22:47:25 74° WSW 22:50:54 24° SSE
Meteor 1-4 Rocket 4.5 22:45:28 10° WSW 22:47:45 20° WNW 22:50:03 10° NNW
Meteor 2-5 Rocket 4.5 22:46:15 22° SSE 22:49:35 42° E 22:55:02 10° NNE
BREEZE-M DEB (TANK) 2.7 22:47:56 10° WNW 22:51:51 45° N 22:53:54 10° ENE
Cosmos 1953 3.8 22:50:29 10° NNW 22:53:45 27° W 22:55:58 16° SW
Cosmos 2098 Rocket 4.5 22:48:04 10° N 22:54:34 56° ENE 22:58:50 21° SE
Cosmos 1315 Rocket 4.3 22:52:43 10° SW 22:56:15 32° WNW 22:59:52 10° N
H-2A R/B 3.8 22:54:44 10° NE 22:57:42 18° E 22:59:07 16° ESE
PSLV R/B 4.0 22:55:26 10° N 22:59:26 72° WNW 23:01:43 24° SSW
Cosmos 1300 Rocket 3.6 22:56:44 10° NNW 23:01:01 67° W 23:03:09 28° S
Cosmos 1242 Rocket 3.5 23:00:40 19° WSW 23:01:57 29° WNW 23:04:26 10° N
Cosmos 304 Rocket 4.1 23:03:17 28° SSE 23:05:23 48° ESE 23:09:58 10° NNE
Cosmos 158 Rocket 4.3 23:02:15 10° NNW 23:07:28 58° WSW 23:10:13 26° S
Cosmos 2151 Rocket 4.4 23:04:58 10° N 23:09:09 41° ENE 23:11:26 23° SE
BlueWalker 3 1.7 23:06:00 12° SW 23:09:24 67° SSE 23:13:07 10° ENE
Cosmos 2360 Rocket 4.4 23:06:42 10° WNW 23:09:27 14° W 23:12:12 10° SW
Cosmos 405 Rocket 3.1 23:06:53 10° N 23:10:34 50° ENE 23:12:07 30° SE
Okean 2 Rocket 3.8 23:11:25 10° N 23:15:42 44° ENE 23:18:04 23° SE
ALOS 2 2.5 23:14:27 31° S 23:16:32 83° WSW 23:20:58 10° NNW
Cosmos 546 4.5 23:15:48 10° WNW 23:19:39 69° SSW 23:22:00 22° ESE
Cosmos 1674 Rocket 4.4 23:20:04 26° SE 23:21:50 37° E 23:25:51 10° NNE
Cosmos 1378 Rocket 4.1 23:20:47 28° SE 23:22:34 44° E 23:26:45 10° NNE
COSMOS 2455 2.8 23:18:34 20° SSW 23:22:56 78° ESE 23:29:00 10° NE
USA 234 4.0 23:17:26 10° ENE 23:23:47 55° NNW 23:30:07 10° W
NOSS 0 Rocket 4.2 23:20:04 10° NW 23:26:10 58° WSW 23:29:40 26° S
CENTAUR R/B 3.5 23:24:42 22° SE 23:26:52 27° ESE 23:32:20 10° ENE
Cosmos 1408 3.2 23:27:13 27° WSW 23:28:13 35° WNW 23:31:02 10° N
Cosmos 773 Rocket 4.0 23:24:18 10° NNW 23:29:25 68° WSW 23:32:01 29° S
Cosmos 1703 3.3 23:34:51 33° SSW 23:36:20 62° WNW 23:40:00 10° N
H-2A R/B 3.7 23:34:40 23° SW 23:36:31 32° W 23:40:23 10° NNW
Cosmos 2221 Rocket 4.1 23:34:53 29° SSE 23:36:46 48° E 23:41:03 10° NNE
Cosmos 1892 3.1 23:37:30 35° SE 23:38:26 44° E 23:41:48 10° NNE
Cosmos 1709 Rocket 4.3 23:34:37 20° SSW 23:39:04 63° WNW 23:45:24 10° N
SL-16 R/B 3.1 23:33:46 10° NNW 23:39:14 45° NE 23:44:41 10° SE
Cosmos 1174 4.0 23:34:26 10° NW 23:39:33 89° SW 23:41:41 29° SE
Sich 1 Rocket 3.6 23:36:57 10° N 23:41:22 77° E 23:43:22 32° SSE
Cosmos 2242 Rocket 4.4 23:39:46 21° SW 23:42:28 46° WNW 23:46:54 10° N
SJ 16-02 4.1 23:41:40 10° W 23:43:58 14° NW 23:46:17 10° NNW
Cosmos 2237 Rocket 2.3 23:40:22 10° NNW 23:45:59 64° WSW 23:48:59 28° S
Cosmos 1777 Rocket 4.0 23:43:34 28° SSW 23:46:28 79° ESE 23:51:46 10° NNE
CZ-4C R/B 1.9 23:43:30 22° SW 23:46:36 89° SE 23:52:26 10° NE
Cosmos 1503 Rocket 4.0 23:43:28 25° SSW 23:46:38 88° WNW 23:51:58 10° NNE
BREEZE-M DEB (TANK) 2.8 23:38:49 10° W 23:48:24 79° SSW 23:51:29 10° ESE
Cosmos 2227 Rocket 2.5 23:50:16 28° S 23:53:05 52° ESE 23:58:35 10° NE
GEOS 3 Rocket 4.2 23:50:01 10° NE 23:54:50 38° ESE 23:56:49 28° SSE
